TimeHST,TemperatureF,Dew PointF,Humidity,Sea Level PressureIn,VisibilityMPH,Wind Direction,Wind SpeedMPH,Gust SpeedMPH,PrecipitationIn,Events,Conditions,WindDirDegrees,DateUTC
12:56 AM,-9999,-9999,N/A,30.02,10.0,NNW,16.1,-,N/A,,Partly Cloudy,330,2013-04-01 10:56:00
1:56 AM,-9999,-9999,N/A,30.01,10.0,NNW,16.1,-,N/A,,Clear,340,2013-04-01 11:56:00
2:56 AM,-9999,-9999,N/A,30.00,10.0,NNW,13.8,-,N/A,,Mostly Cloudy,330,2013-04-01 12:56:00
3:56 AM,123.1,57.9,12,29.99,10.0,North,19.6,-,N/A,,Overcast,10,2013-04-01 13:56:00
4:56 AM,111.0,66.9,24,29.99,10.0,NNE,6.9,-,0.04,,Overcast,20,2013-04-01 14:56:00
5:56 AM,-9999,-9999,N/A,30.00,10.0,North,3.5,-,N/A,,Mostly Cloudy,360,2013-04-01 15:56:00
6:56 AM,-9999,-9999,N/A,30.01,10.0,North,17.3,-,N/A,,Partly Cloudy,350,2013-04-01 16:56:00
7:56 AM,89.1,59.0,36,30.02,10.0,North,13.8,-,N/A,,Overcast,350,2013-04-01 17:56:00
8:56 AM,-9999,-9999,N/A,30.03,10.0,NNW,6.9,-,0.01,,Mostly Cloudy,330,2013-04-01 18:56:00
9:56 AM,100.9,59.0,25,30.04,10.0,North,18.4,24.2,0.00,Rain,Light Rain,350,2013-04-01 19:56:00
10:56 AM,106.0,55.0,19,30.03,10.0,North,18.4,-,0.00,,Partly Cloudy,350,2013-04-01 20:56:00
11:56 AM,107.1,54.0,17,30.02,10.0,NNW,15.0,-,N/A,,Mostly Cloudy,340,2013-04-01 21:56:00
12:56 PM,108.0,55.0,17,30.00,10.0,North,11.5,-,N/A,,Mostly Cloudy,10,2013-04-01 22:56:00
1:56 PM,122.0,55.9,12,29.99,10.0,NNW,16.1,-,N/A,,Scattered Clouds,340,2013-04-01 23:56:00
2:56 PM,111.9,60.1,19,29.98,10.0,NNE,13.8,-,0.01,,Partly Cloudy,20,2013-04-02 00:56:00
3:56 PM,8.1,-9999,N/A,29.97,10.0,North,15.0,-,N/A,,Overcast,10,2013-04-02 01:56:00
4:56 PM,9.0,-9999,N/A,29.97,-9999.0,North,15.0,-,N/A,,Mostly Cloudy,350,2013-04-02 02:56:00
5:56 PM,1.0,-9999,N/A,29.98,10.0,North,18.4,-,N/A,,Partly Cloudy,350,2013-04-02 03:56:00
6:56 PM,8.1,-9999,N/A,29.99,-9999.0,North,16.1,-,N/A,,Mostly Cloudy,350,2013-04-02 04:56:00
7:56 PM,8.1,-9999,N/A,30.02,-9999.0,North,16.1,-,0.00,,Mostly Cloudy,10,2013-04-02 05:56:00
8:56 PM,8.1,8.1,100,30.03,10.0,North,16.1,-,N/A,,Overcast,360,2013-04-02 06:56:00
9:56 PM,100.0,57.0,24,30.04,10.0,North,17.3,-,0.00,,Overcast,360,2013-04-02 07:56:00
10:56 PM,98.1,55.0,24,30.04,10.0,North,13.8,-,N/A,,Overcast,360,2013-04-02 08:56:00
11:56 PM,97.0,54.0,23,30.04,10.0,North,13.8,-,N/A,,Mostly Cloudy,10,2013-04-02 09:56:00